sat.trackr.live / text

‹ back to catalog

STARLINK-37372

NORAD 69135 · 2026-110M

PAYLOAD ACTIVE UNKNOWN

§ Identity

Operator
Country
US
Launch date
2026-05-20
Launch site
AFWTR
Launch vehicle
Mass (kg)
RCS (m²)

Purposes: comms

External: N2YO · Heavens-Above · Gunter

§ Orbital elements

Epoch: 2026-09-19T23:05:49.206912Z

Period
93.91 min
Inclination
97.2854°
Eccentricity
0.0001883
Mean motion
15.33458050 rev/d
Perigee alt
464.2 km
Apogee alt
466.8 km
Semi-major
6,843.6 km
B*
5.2139e-4
RAAN
98.0249°
Arg perigee
31.4086°
Mean anomaly
328.7269°
Rev number
2,013

§ Raw data

STARLINK-373721 69135U 26110M   26262.96237508  .00016802  00000+0  52139-3 0  99912 69135  97.2854  98.0249 0001883  31.4086 328.7269 15.33458050 20132

JSON: /api/v1/satellites/69135 · /tle

For live sub-satellite position, see the globe view (requires WebGL).

§ Visibility from observer

Set your observer location to see the next 7 days of passes ≥ 10°. The values pass through the URL so the page stays shareable.

No JS? Fill the form by hand. The geolocation button needs JavaScript.